Tracking 32139 objects as of 17-Nov-2025
HD Live streaming from Space Station
objects crossing your sky now

STARLINK-35170

Track STARLINK-35170 now!
10-day predictions
STARLINK-35170 is classified as:


NORAD ID: 65532
Int'l Code: 2025-200N
Perigee: 553.0 km
Apogee: 555.1 km
Inclination: 97.6 °
Period: 95.6 minutes
Semi major axis: 6925 km
RCS: Unknown
Launch date: September 6, 2025
Source: United States (US)
Launch site: AIR FORCE EASTERN TEST RANGE (AFETR)
Your satellite tracking list
Your tracking list is empty




NASA's NSSDC Master Catalog

Two Line Element Set (TLE):
1 65532U 25200N   25320.17541206  .00010891  00000-0  74095-3 0  9995
2 65532  97.6047  27.9564 0001512  87.2628 272.8772 15.06492529 12057
Source of the keplerian elements: AFSPC